Showing default

SJ-12, 36596

Orbit data source: Space-Track

SJ-12, 36596 is a payload satellite owned by CASC (CN) in SSO that was launched on Tue, 15 Jun 2010 UTC via a CHANG ZHENG 2D launch vehicle from the Jiuquan Satellite Launch Center, China (JSC). Payload-class satellites include a variety of spacecraft equipped with specific instruments for various scientific and technological missions. These include communications satellites like Starlink; space stations such as the ISS; scientific satellites like the Hubble; Earth observation satellites from companies like Planet Labs, Umbra, and HawkEye 360; GPS; miniature CubeSats for education and research; and military/defense satellites.

Loading next visibility...
Identifier
36596, 2010-027A
Orbit
SSO
Country
Flag of CNCN / PRC
Related business
Manufacturer
SAST
Mission
Operational Civil Science
Bus & Motor
FY-1?, Unknown motor
Mass
~1,000 kg wet, ~1,000 kg dry
Launch date (UTC)
2010-06-15 (16 years ago)
Launch vehicle
CHANG ZHENG 2D
Launch site
Jiuquan Satellite Launch Center, China (JSC)
Object type
Payload
Rocket body
Debris
Shape & HBR
Box + 2 Pan, 4.3 m
Radar Cross Section
5.659 m², Large (>1 m²)

Expand to show TLE details & history
Last TLE update: 13 hours ago

TLE from 13 hours ago
0 SJ-12
1 36596U 10027A   26171.49053403  .00003789  00000-0  19663-3 0  9999
2 36596  97.7619 189.2607 0008302  88.0490 272.1693 15.16749703875367
Epoch: 2026-06-20T11:46Z
TLE epoch observation values (Epoch: 2026-06-20T11:46:22.140Z)
Latitude
-0.00001°
Longitude
103.96405°
Altitude
518.535 km
Speed
7.604 km/s
True Right ascension
12h 37m 02s
True Declination
0° 00' 00"
Sunlit
Object was in daylight at epoch
Visualization orbit readout
Latitude
Unknown
Longitude
Unknown
Altitude
Unknown
Speed
Unknown
Apparent Right ascension
Unknown
Apparent Declination
Unknown
Sunlit
N/A
Visualization observer readout
Local Sidereal Time
11:20:27
Azimuth
Unknown
Elevation
Unknown
Doppler factor
Unknown
Orbital elements
Apogee altitude
518.378 km
Perigee altitude
506.937 km
Semi-major axis
6,890.794 km
Eccentricity
0.00083
Inclination
97.7619°
RAAN
189.2607°
Arg. of periapsis
88.049°
True anomaly
272.07423°
Mean anomaly
272.1693°
Eccentric anomaly
272.12177°
Mean motion
3.79437 °/min
Orbital period
94.88 mins
BSTAR
0.00019663
Loading maneuver chart data...
Computing Atmospheric mass density...
Loading historical data...
Loading historical data...
Loading historical data...
Loading historical data...
Loading historical data...
Loading historical data...
Loading historical data...

Documentation

Showing up to 5 results
|